Location: Pedholt
(56.0260°N, 10.2097°E)
Time: 21:13:20
(UTC+00:00)

Tiros 1 - Pass Details

Date: 10 August 2021
Orbit: 630 x 663 km, 48.4° (Epoch: 19 September)

Event Time Altitude Azimuth Distance (km) Brightness Sun altitude
Rises 18:32:30 0° 268° (W) 2,990 12.0 3.5°
Reaches altitude 10° 18:35:15 10° 254° (WSW) 2,072 10.7 3.2°
Maximum altitude 18:38:56 22° 203° (SSW) 1,412 9.0 2.7°
Drops below altitude 10° 18:42:35 10° 153° (SSE) 2,052 9.3 2.2°
Sets 18:45:18 0° 138° (SE) 2,954 9.9 1.9°
